Weather History for KIEN - December, 2011

Change the Weather History Date:

Tuesday, December 27, 2011

  Actual Average Record
Temperature  
Mean Temperature 25 °F 22 °F  
Max Temperature 46 °F 36 °F 51 °F (2005)
Min Temperature 4 °F 9 °F -5 °F (2012)
Degree Days  
Heating Degree Days 40 43  
Month to date heating degree days 1108 1131  
Since 1 July heating degree days 2682 2821  
Cooling Degree Days 0 0  
Month to date cooling degree days 0 0  
Year to date cooling degree days 818 717  
Moisture  
Dew Point 14 °F    
Average Humidity 60    
Maximum Humidity 87    
Minimum Humidity 33    
Precipitation  
Precipitation 0.00 in 0.01 in 0.00 in (2015)
Month to date precipitation 0.06 0.30  
Year to date precipitation 18.36 17.47  
Sea Level Pressure  
Sea Level Pressure 30.11 in    
Wind  
Wind Speed 4 mph (WSW)    
Max Wind Speed 14 mph    
Max Gust Speed 18 mph    
Visibility 10 miles    
Events      
T = Trace of Precipitation, MM = Missing Value Source: NWS Daily Summary

Daily Weather History Graph

Daily Weather History Graph

Search for Another Location

Airport or City:

Trip Planner

Search our weather history database for the weather conditions in past years. The results will help you decide how hot, cold, wet, or windy it might be!

Date:

Astronomy

Dec. 27, 2011 Rise Set
Actual Time 7:20 AM MST 4:21 PM MST
Civil Twilight 6:48 AM MST 4:54 PM MST
Nautical Twilight 6:12 AM MST 5:30 PM MST
Astronomical Twilight 5:37 AM MST 6:04 PM MST
Moon 9:12 AM MST (12/27) 8:02 PM MST (12/27)
Length of Visible Light 10h 06m
Length of Day
9h 01m
Waxing Crescent, 11% of the Moon is Illuminated
Dec 27
Waxing Crescent
Dec 31
First Quarter
Jan 9
Full
Jan 16
Last Quarter
Jan 23
New

Hourly Weather History & Observations

Time (MST) Temp. Windchill Dew Point Humidity Pressure Visibility Wind Dir Wind Speed Gust Speed Precip Events Conditions
12:52 AM 21.0 °F 12.4 °F 15.1 °F 78% 30.18 in 10.0 mi WNW 6.9 mph - N/A   Clear
1:52 AM 19.9 °F 13.4 °F 14.0 °F 78% 30.19 in 10.0 mi West 4.6 mph - N/A   Clear
2:52 AM 17.1 °F 11.7 °F 12.0 °F 81% 30.21 in 10.0 mi WSW 3.5 mph - N/A   Clear
3:52 AM 15.1 °F 7.7 °F 10.0 °F 80% 30.20 in 10.0 mi West 4.6 mph - N/A   Clear
4:52 AM 10.9 °F - 7.0 °F 84% 30.22 in 10.0 mi Calm Calm - N/A   Clear
5:52 AM 5.0 °F - 1.0 °F 84% 30.23 in 10.0 mi Calm Calm - N/A   Clear
6:52 AM 5.0 °F - -0.0 °F 80% 30.22 in 10.0 mi Calm Calm - N/A   Clear
7:52 AM 9.0 °F 2.4 °F 5.0 °F 84% 30.20 in 10.0 mi East 3.5 mph - N/A   Clear
8:52 AM 21.9 °F - 16.0 °F 78% 30.17 in 10.0 mi Calm Calm - N/A   Clear
9:52 AM 26.1 °F - 21.9 °F 84% 30.15 in 10.0 mi Calm Calm - N/A   Clear
10:52 AM 30.0 °F - 23.0 °F 75% 30.10 in 10.0 mi Calm Calm - N/A   Mostly Cloudy
11:52 AM 39.0 °F 33.4 °F 17.1 °F 41% 30.03 in 10.0 mi South 8.1 mph - N/A   Scattered Clouds
12:52 PM 43.0 °F 37.2 °F 16.0 °F 34% 29.97 in 10.0 mi South 10.4 mph - N/A   Overcast
1:52 PM 45.0 °F 39.7 °F 18.0 °F 34% 29.95 in 10.0 mi SSW 10.4 mph - N/A   Mostly Cloudy
2:52 PM 45.0 °F 40.6 °F 17.1 °F 33% 29.98 in 10.0 mi WSW 8.1 mph - N/A   Clear
3:52 PM 41.0 °F 37.1 °F 16.0 °F 36% 29.99 in 10.0 mi West 5.8 mph - N/A   Clear
4:52 PM 28.9 °F 23.9 °F 16.0 °F 58% 30.04 in 10.0 mi SSW 4.6 mph - N/A   Clear
5:52 PM 27.0 °F 21.6 °F 16.0 °F 63% 30.06 in 10.0 mi WSW 4.6 mph - N/A   Clear
7:52 PM 24.1 °F 18.2 °F 16.0 °F 71% 30.09 in 10.0 mi WSW 4.6 mph - N/A   Clear
8:52 PM 23.0 °F 18.4 °F 16.0 °F 74% 30.08 in 10.0 mi SW 3.5 mph - N/A   Clear
9:52 PM 23.0 °F 14.7 °F 17.1 °F 78% 30.09 in 10.0 mi SW 6.9 mph - N/A   Clear
10:52 PM 28.0 °F 22.8 °F 19.0 °F 69% 30.06 in 10.0 mi West 4.6 mph - N/A   Clear
11:52 PM 26.1 °F 20.5 °F 19.0 °F 75% 30.03 in 10.0 mi WSW 4.6 mph - N/A   Clear